SBONWEB Weather Reports


Display with metric or nautical units.
time (UTC)temp
F
wind
direction
speed
MPH
gust
MPH
rain 1hr
in
rain 24hr
in
rain mn
in
humidity
%
barometer
mb
20260901045403 70 10 4.0 8.0 0.00 0.00 0.00 54 1017.7
20260901044718 70 19 4.0 8.0 0.00 0.00 0.00 53 1017.7
20260901043603 70 15 5.0 8.0 0.00 0.00 0.00 53 1017.4
20260901042703 70 9 4.0 8.0 0.00 0.00 0.00 53 1017.4
20260901041804 70 11 4.0 8.0 0.00 0.00 0.00 53 1017.3
20260901040903 70 344 3.0 7.0 0.00 0.00 0.00 53 1017.1
20260901040004 70 12 3.0 5.0 0.00 0.00 0.00 53 1017.0
20260901035403 70 19 4.0 6.0 0.00 0.00 0.00 53 1016.9
20260901034503 70 325 4.0 9.0 0.00 0.00 0.00 53 1016.8
20260901033603 71 348 5.0 10.0 0.00 0.00 0.00 53 1016.7
20260901032918 71 352 6.0 10.0 0.00 0.00 0.00 53 1016.7
20260901031804 71 290 5.0 12.0 0.00 0.00 0.00 53 1016.4
20260901030903 71 287 5.0 10.0 0.00 0.00 0.00 53 1016.5
20260901030003 71 273 4.0 10.0 0.00 0.00 0.00 53 1016.5
20260901025403 71 275 5.0 10.0 0.00 0.00 0.00 53 1016.5
20260901024503 71 281 4.0 10.0 0.00 0.00 0.00 54 1016.6
20260901023604 70 321 4.0 8.0 0.00 0.00 0.00 55 1016.6
20260901022703 69 12 1.0 5.0 0.00 0.00 0.00 58 1016.7
20260901021803 68 16 1.0 3.0 0.00 0.00 0.00 62 1016.7
20260901021119 68 46 0.0 3.0 0.00 0.00 0.00 64 1016.7
20260901015403 69 0 1.0 0.0 0.00 0.00 0.00 59 1016.6
20260901014503 70 111 1.0 3.0 0.00 0.00 0.00 58 1016.8
20260901013603 71 168 0.0 3.0 0.00 0.00 0.00 56 1016.7
20260901012917 73 274 1.0 2.0 0.00 0.00 0.00 52 1016.7
20260901011804 73 323 3.0 8.0 0.00 0.00 0.00 50 1016.6
20260901010903 74 328 4.0 8.0 0.00 0.00 0.00 50 1016.6
20260901010003 74 316 5.0 8.0 0.00 0.00 0.00 51 1016.5
20260901005404 74 311 5.0 8.0 0.00 0.00 0.00 53 1016.5
20260901004503 73 299 6.0 10.0 0.00 0.00 0.00 54 1016.5
20260901003603 73 317 7.0 13.0 0.00 0.00 0.00 56 1016.5
20260901002703 73 309 6.0 11.0 0.00 0.00 0.00 59 1016.4
20260901001804 73 328 7.0 12.0 0.00 0.00 0.00 61 1016.5
20260901000903 74 325 8.0 14.0 0.00 0.00 0.00 62 1016.5
20260901000003 74 329 7.0 14.0 0.00 0.00 0.00 60 1016.4
20260831235403 74 296 6.0 13.0 0.00 0.00 0.00 63 1016.5
20260831234503 73 297 5.0 11.0 0.00 0.00 0.00 68 1016.5
20260831233604 73 312 4.0 9.0 0.00 0.00 0.00 69 1016.5
20260831232703 73 319 3.0 10.0 0.00 0.00 0.00 69 1016.5
20260831231804 73 261 2.0 7.0 0.00 0.00 0.00 71 1016.5
20260831230903 73 265 1.0 6.0 0.00 0.00 0.00 71 1016.5
20260831230216 73 232 1.0 3.0 0.00 0.00 0.00 71 1016.4
20260831225403 73 229 2.0 4.0 0.00 0.00 0.00 72 1016.3
20260831224503 73 217 2.0 4.0 0.00 0.00 0.00 72 1016.4
20260831223817 73 251 3.0 8.0 0.00 0.00 0.00 72 1016.3
20260831222703 72 279 3.0 8.0 0.00 0.00 0.00 75 1016.1
20260831221804 72 240 1.0 7.0 0.00 0.00 0.00 76 1016.1
20260831220903 73 0 0.0 0.0 0.00 0.00 0.00 76 1016.2
20260831220218 73 0 0.0 0.0 0.00 0.00 0.00 74 1016.2
20260831215618 74 0 0.0 0.0 0.00 0.00 0.00 73 1016.2
20260831214717 74 0 0.0 0.0 0.00 0.00 0.00 72 1016.1
20260831213603 75 0 0.0 0.0 0.00 0.00 0.00 70 1016.1
20260831212704 75 232 2.0 3.0 0.00 0.00 0.00 70 1015.9
20260831211803 75 228 3.0 5.0 0.00 0.00 0.00 71 1015.9
20260831210903 75 223 2.0 5.0 0.00 0.00 0.00 71 1015.8
20260831210003 75 231 2.0 4.0 0.00 0.00 0.00 71 1015.8
20260831205403 75 234 2.0 4.0 0.00 0.00 0.00 71 1015.8
20260831204503 75 229 3.0 7.0 0.00 0.00 0.00 72 1015.7
20260831203603 76 227 3.0 7.0 0.00 0.00 0.00 71 1015.7
20260831202703 76 224 3.0 5.0 0.00 0.00 0.00 71 1015.5
20260831201804 75 219 1.0 5.0 0.00 0.00 0.00 70 1015.5
20260831200903 75 243 0.0 1.0 0.00 0.00 0.00 70 1015.5
20260831200003 75 233 2.0 3.0 0.00 0.00 0.00 71 1015.4
20260831195617 75 226 2.0 4.0 0.00 0.00 0.00 71 1015.3
20260831194503 74 219 2.0 4.0 0.00 0.00 0.00 72 1015.2
20260831193603 74 215 1.0 3.0 0.00 0.00 0.00 73 1015.2
20260831192703 74 254 1.0 2.0 0.00 0.00 0.00 72 1015.2
20260831191804 74 275 1.0 3.0 0.00 0.00 0.00 72 1015.2
20260831190903 74 211 1.0 2.0 0.00 0.00 0.00 73 1015.2
20260831190003 74 203 1.0 3.0 0.00 0.00 0.00 72 1015.1
20260831185403 74 203 1.0 2.0 0.00 0.00 0.00 73 1015.1
20260831184503 75 203 1.0 2.0 0.00 0.00 0.00 72 1014.8
20260831183603 75 202 0.0 2.0 0.00 0.00 0.00 71 1014.7
20260831182703 76 202 1.0 2.0 0.00 0.00 0.00 69 1014.6
20260831181804 77 203 1.0 2.0 0.00 0.00 0.00 68 1014.5
20260831180903 78 225 1.0 2.0 0.00 0.00 0.00 66 1014.4
20260831180003 79 222 1.0 2.0 0.00 0.00 0.00 65 1014.5
20260831175403 80 224 1.0 3.0 0.00 0.00 0.00 63 1014.5
20260831174503 81 228 1.0 2.0 0.00 0.00 0.00 61 1014.5
20260831173604 82 227 1.0 2.0 0.00 0.00 0.00 60 1014.5
20260831172703 83 211 1.0 3.0 0.00 0.00 0.00 58 1014.5
20260831171803 84 202 0.0 2.0 0.00 0.00 0.00 62 1014.4
20260831170904 85 202 0.0 1.0 0.00 0.00 0.00 60 1014.4
20260831170003 85 202 0.0 2.0 0.00 0.00 0.00 54 1014.3
20260831165403 85 208 0.0 2.0 0.00 0.00 0.00 54 1014.4
20260831164508 85 220 1.0 3.0 0.00 0.00 0.00 52 1014.5
20260831163603 85 205 1.0 3.0 0.00 0.00 0.00 53 1014.4
20260831162703 85 176 1.0 3.0 0.00 0.00 0.00 52 1014.4
20260831161804 86 156 2.0 5.0 0.00 0.00 0.00 52 1014.5
20260831160903 86 160 2.0 5.0 0.00 0.00 0.00 52 1014.5
20260831160003 86 160 1.0 3.0 0.00 0.00 0.00 51 1014.5
20260831155404 86 158 2.0 3.0 0.00 0.00 0.00 51 1014.6
20260831154503 86 184 2.0 5.0 0.00 0.00 0.00 52 1014.7
20260831153603 86 208 2.0 5.0 0.00 0.00 0.00 52 1014.7
20260831152703 86 170 2.0 4.0 0.00 0.00 0.00 51 1014.7
20260831151803 86 165 2.0 6.0 0.00 0.00 0.00 51 1014.8
20260831151118 86 158 2.0 5.0 0.00 0.00 0.00 54 1014.8
20260831150003 86 163 2.0 6.0 0.00 0.00 0.00 52 1015.0
20260831145617 87 156 2.0 6.0 0.00 0.00 0.00 53 1014.9
20260831144716 86 163 2.0 5.0 0.00 0.00 0.00 52 1014.8
20260831143604 86 138 2.0 5.0 0.00 0.00 0.00 54 1014.8
20260831142704 86 148 3.0 6.0 0.00 0.00 0.00 52 1015.0
20260831141803 86 171 3.0 8.0 0.00 0.00 0.00 51 1014.8
20260831141118 86 166 3.0 8.0 0.00 0.00 0.00 52 1014.8
20260831140217 86 124 2.0 4.0 0.00 0.00 0.00 52 1014.8
20260831135403 85 117 3.0 7.0 0.00 0.00 0.00 53 1014.9
20260831134503 85 135 3.0 8.0 0.00 0.00 0.00 52 1015.0
20260831133603 85 158 3.0 7.0 0.00 0.00 0.00 52 1015.0
20260831132919 85 137 3.0 7.0 0.00 0.00 0.00 53 1015.1
20260831131803 85 131 4.0 10.0 0.00 0.00 0.00 53 1015.0
20260831130903 85 123 2.0 10.0 0.00 0.00 0.00 53 1015.2
20260831130004 85 134 2.0 4.0 0.00 0.00 0.00 52 1015.1
20260831125403 85 130 3.0 6.0 0.00 0.00 0.00 52 1015.2
20260831124503 84 119 3.0 8.0 0.00 0.00 0.00 52 1015.4
20260831123817 85 133 3.0 7.0 0.00 0.00 0.00 52 1015.4
20260831122703 85 181 2.0 8.0 0.00 0.00 0.00 51 1015.6
20260831121804 84 169 2.0 7.0 0.00 0.00 0.00 51 1015.8
20260831120903 84 144 4.0 5.0 0.00 0.00 0.00 53 1015.8
20260831120003 83 118 4.0 11.0 0.00 0.00 0.00 55 1015.8
20260831115404 83 106 3.0 9.0 0.00 0.00 0.00 54 1015.9
20260831114717 83 109 3.0 9.0 0.00 0.00 0.00 54 1015.9
20260831113604 83 116 4.0 7.0 0.00 0.00 0.00 56 1016.0
20260831112703 83 110 5.0 9.0 0.00 0.00 0.00 57 1016.0
20260831111803 83 109 3.0 9.0 0.00 0.00 0.00 55 1016.1
20260831110904 84 155 2.0 6.0 0.00 0.00 0.00 55 1016.1
20260831110003 83 189 2.0 4.0 0.00 0.00 0.00 57 1016.1
20260831105403 82 177 2.0 7.0 0.00 0.00 0.00 58 1016.1
20260831104717 82 201 2.0 7.0 0.00 0.00 0.00 56 1016.2
20260831103816 83 148 2.0 7.0 0.00 0.00 0.00 56 1016.1
20260831102703 82 169 3.0 6.0 0.00 0.00 0.00 55 1016.2
20260831101803 82 149 2.0 8.0 0.00 0.00 0.00 57 1016.2
20260831100903 82 190 3.0 5.0 0.00 0.00 0.00 55 1016.2
20260831100218 81 209 3.0 7.0 0.00 0.00 0.00 55 1016.2
20260831095403 82 187 1.0 5.0 0.00 0.00 0.00 54 1016.3
20260831094503 81 188 2.0 4.0 0.00 0.00 0.00 57 1016.2
20260831093603 81 174 2.0 5.0 0.00 0.00 0.00 57 1016.5
20260831092703 81 151 3.0 5.0 0.00 0.00 0.00 60 1016.5
20260831091803 80 171 3.0 6.0 0.00 0.00 0.00 61 1016.4
20260831090903 80 126 2.0 6.0 0.00 0.00 0.00 61 1016.4
20260831090004 80 113 2.0 5.0 0.00 0.00 0.00 63 1016.5
20260831085403 80 106 2.0 4.0 0.00 0.00 0.00 66 1016.4
20260831084716 80 120 2.0 4.0 0.00 0.00 0.00 63 1016.3
20260831083604 80 93 1.0 6.0 0.00 0.00 0.00 63 1016.4
20260831082704 80 142 1.0 2.0 0.00 0.00 0.00 63 1016.4
20260831081803 79 186 1.0 3.0 0.00 0.00 0.00 62 1016.2
20260831081118 79 172 1.0 3.0 0.00 0.00 0.00 62 1016.1
20260831080003 79 42 1.0 4.0 0.00 0.00 0.00 63 1016.3
20260831075403 79 358 1.0 3.0 0.00 0.00 0.00 63 1016.2
20260831074503 78 95 1.0 2.0 0.00 0.00 0.00 64 1016.2
20260831073603 77 36 3.0 4.0 0.00 0.00 0.00 65 1016.2
20260831072703 76 14 4.0 7.0 0.00 0.00 0.00 67 1016.0
20260831071803 76 16 3.0 7.0 0.00 0.00 0.00 67 1016.1
20260831070903 75 12 4.0 5.0 0.00 0.00 0.00 68 1016.0
20260831070003 75 356 3.0 8.0 0.00 0.00 0.00 68 1016.1
20260831065616 75 333 3.0 7.0 0.00 0.00 0.00 68 1016.1
20260831064504 75 11 3.0 5.0 0.00 0.00 0.00 68 1016.0
20260831063604 75 25 1.0 7.0 0.00 0.00 0.00 67 1016.0
20260831062703 75 21 2.0 4.0 0.00 0.00 0.00 69 1016.1
20260831061803 74 343 2.0 7.0 0.00 0.00 0.00 69 1016.1
20260831060903 73 293 2.0 8.0 0.00 0.00 0.00 70 1016.0
20260831060216 73 277 4.0 5.0 0.00 0.00 0.00 72 1016.0
20260831055403 72 315 5.0 10.0 0.00 0.00 0.00 72 1015.9
20260831054504 72 330 4.0 9.0 0.00 0.00 0.00 73 1016.0
20260831053816 71 299 5.0 9.0 0.00 0.00 0.00 73 1016.0
20260831052703 71 316 6.0 11.0 0.00 0.00 0.00 74 1015.8
20260831051804 70 325 6.0 11.0 0.00 0.00 0.00 77 1015.8
20260831050903 70 1 5.0 9.0 0.00 0.00 0.00 78 1015.7
20260831050003 69 333 3.0 8.0 0.00 0.00 0.00 80 1015.7